Location: ????
(55.5675°N, 37.6272°E)
Time: 11:47:16
(UTC+00:00)

Cosmos 1697 Rocket - Pass Details

Date: 14 April 2026
Orbit: 832 x 842 km, 71.0° (Epoch: 10 May)

Event Time Altitude Azimuth Distance (km) Brightness Sun altitude
Rises 20:41:26 0° 323° (NW) 3,408 6.9 -24.0°
Reaches altitude 10° 20:44:06 10° 332° (NNW) 2,470 6.1 -24.1°
Maximum altitude 20:49:17 35° 38° (NE) 1,333 4.0 -24.2°
Enters shadow 20:53:06 16° 96° (E) 2,033 4.5 -24.3°
